AAL2189 KIND-KMIA

Flight info

Callsign AAL2189
Flight time N/A
Altitude 37000
Route DAWNN1 IIU Q79 THRSR/N0456F360 HONID FROGZ5
Aircraft A320/M-SDE3FGHIRWY/LB1

Departure

Time 2026-05-07 14:16
Airport Indianapolis International Airport (KIND)

Arrival

Time N/A
Airport Miami International Airport (KMIA)
Time Latitude Longitude Altitude Speed Heading
2026-05-07 13:39 39.71716 -86.29833 785 ft 0 kts 133°
2026-05-07 13:59 39.71718 -86.29836 785 ft 3 kts 133°
2026-05-07 13:59 39.71736 -86.29861 784 ft 4 kts 131°
2026-05-07 13:59 39.71753 -86.29888 784 ft 4 kts 128°
2026-05-07 13:59 39.71770 -86.29916 783 ft 4 kts 124°
2026-05-07 14:00 39.71784 -86.29945 783 ft 4 kts 112°
2026-05-07 14:00 39.71789 -86.29976 782 ft 4 kts 58°
2026-05-07 14:00 39.71784 -86.29985 782 ft 0 kts 45°
2026-05-07 14:03 39.71815 -86.29950 783 ft 7 kts 24°
2026-05-07 14:04 39.71866 -86.29964 783 ft 11 kts 322°
2026-05-07 14:04 39.71940 -86.30057 780 ft 17 kts 316°
2026-05-07 14:04 39.71995 -86.30052 781 ft 7 kts 39°
2026-05-07 14:04 39.72031 -86.30008 781 ft 7 kts 44°
2026-05-07 14:05 39.72077 -86.29951 781 ft 10 kts 44°
2026-05-07 14:05 39.72120 -86.29896 781 ft 8 kts 44°
2026-05-07 14:05 39.72151 -86.29857 782 ft 5 kts 44°
2026-05-07 14:05 39.72184 -86.29815 782 ft 8 kts 45°
2026-05-07 14:06 39.72220 -86.29767 781 ft 7 kts 45°
2026-05-07 14:06 39.72259 -86.29717 780 ft 9 kts 45°
2026-05-07 14:06 39.72314 -86.29646 779 ft 11 kts 44°
2026-05-07 14:06 39.72365 -86.29582 779 ft 9 kts 44°
2026-05-07 14:07 39.72426 -86.29504 778 ft 16 kts 44°
2026-05-07 14:07 39.72509 -86.29399 777 ft 17 kts 44°
2026-05-07 14:07 39.72585 -86.29302 780 ft 14 kts 44°
2026-05-07 14:07 39.72651 -86.29219 780 ft 12 kts 44°
2026-05-07 14:08 39.72682 -86.29179 780 ft 1 kts 44°
2026-05-07 14:13 39.72683 -86.29177 780 ft 0 kts 44°
2026-05-07 14:13 39.72718 -86.29166 781 ft 8 kts 345°
2026-05-07 14:13 39.72751 -86.29212 781 ft 7 kts 314°
2026-05-07 14:13 39.72791 -86.29264 780 ft 9 kts 315°
2026-05-07 14:14 39.72784 -86.29346 778 ft 11 kts 233°
2026-05-07 14:14 39.72745 -86.29399 778 ft 0 kts 225°
2026-05-07 14:14 39.72745 -86.29400 778 ft 1 kts 225°
2026-05-07 14:15 39.72684 -86.29477 778 ft 30 kts 224°
2026-05-07 14:15 39.72351 -86.29903 780 ft 100 kts 224°
2026-05-07 14:15 39.71718 -86.30709 779 ft 151 kts 224°
2026-05-07 14:15 39.70894 -86.31732 1097 ft 168 kts 227°
2026-05-07 14:16 39.70059 -86.32803 1804 ft 170 kts 228°
2026-05-07 14:16 39.69227 -86.33910 2515 ft 174 kts 229°
2026-05-07 14:16 39.68321 -86.35102 2903 ft 197 kts 229°
2026-05-07 14:16 39.67241 -86.36378 3290 ft 224 kts 222°
2026-05-07 14:17 39.65853 -86.37505 3843 ft 248 kts 205°
2026-05-07 14:17 39.64108 -86.37875 4423 ft 270 kts 178°
2026-05-07 14:17 39.62219 -86.37505 5281 ft 278 kts 172°
2026-05-07 14:17 39.60295 -86.37078 6178 ft 283 kts 172°
2026-05-07 14:18 39.58339 -86.36646 6999 ft 287 kts 173°
2026-05-07 14:18 39.56360 -86.36207 7865 ft 289 kts 174°
2026-05-07 14:18 39.54369 -86.35767 8772 ft 291 kts 174°
2026-05-07 14:18 39.52373 -86.35320 9671 ft 292 kts 175°
2026-05-07 14:19 39.50356 -86.34868 10337 ft 301 kts 175°
2026-05-07 14:19 39.48206 -86.34400 10564 ft 325 kts 175°
2026-05-07 14:19 39.45909 -86.33903 10882 ft 342 kts 175°
2026-05-07 14:19 39.43534 -86.33376 11500 ft 349 kts 175°
2026-05-07 14:20 39.41128 -86.32833 12177 ft 354 kts 175°
2026-05-07 14:20 39.38682 -86.32278 12855 ft 359 kts 175°
2026-05-07 14:20 39.36205 -86.31721 13524 ft 364 kts 176°
2026-05-07 14:20 39.33687 -86.31256 14158 ft 366 kts 179°
2026-05-07 14:21 39.31179 -86.30926 14762 ft 368 kts 181°
2026-05-07 14:21 39.28588 -86.30664 15402 ft 370 kts 183°
2026-05-07 14:21 39.26044 -86.30434 16025 ft 372 kts 184°
2026-05-07 14:21 39.23454 -86.30198 16654 ft 375 kts 184°
2026-05-07 14:22 39.20847 -86.29943 17273 ft 377 kts 184°
2026-05-07 14:22 39.18221 -86.29667 17904 ft 380 kts 184°
2026-05-07 14:22 39.15581 -86.29374 18521 ft 382 kts 185°
2026-05-07 14:22 39.12921 -86.29074 19068 ft 384 kts 185°
2026-05-07 14:23 39.10253 -86.28774 19605 ft 386 kts 185°
2026-05-07 14:23 39.07564 -86.28474 20158 ft 388 kts 185°
2026-05-07 14:23 39.04862 -86.28172 20714 ft 391 kts 185°
2026-05-07 14:23 39.02140 -86.27871 21244 ft 393 kts 185°
2026-05-07 14:24 38.99408 -86.27569 21757 ft 395 kts 185°
2026-05-07 14:24 38.96659 -86.27264 22274 ft 398 kts 185°
2026-05-07 14:24 38.93892 -86.26955 22787 ft 400 kts 185°
2026-05-07 14:24 38.91109 -86.26644 23276 ft 402 kts 186°
2026-05-07 14:25 38.88311 -86.26334 23733 ft 405 kts 186°
2026-05-07 14:25 38.85498 -86.26027 24129 ft 406 kts 186°
2026-05-07 14:25 38.82712 -86.25723 24521 ft 408 kts 186°
2026-05-07 14:25 38.79877 -86.25411 24902 ft 410 kts 186°
2026-05-07 14:26 38.77031 -86.25094 25273 ft 411 kts 186°
2026-05-07 14:26 38.74169 -86.24775 25656 ft 412 kts 186°
2026-05-07 14:26 38.71309 -86.24459 26018 ft 413 kts 187°
2026-05-07 14:26 38.68434 -86.24145 26396 ft 414 kts 187°
2026-05-07 14:27 38.65559 -86.23831 26772 ft 415 kts 187°
2026-05-07 14:27 38.62672 -86.23504 27139 ft 419 kts 185°
2026-05-07 14:27 38.59760 -86.22737 27488 ft 437 kts 175°
2026-05-07 14:27 38.56885 -86.21217 27827 ft 458 kts 164°
2026-05-07 14:28 38.54177 -86.18887 28143 ft 481 kts 151°
2026-05-07 14:28 38.51806 -86.15829 28432 ft 498 kts 143°
2026-05-07 14:28 38.49496 -86.12522 28712 ft 500 kts 143°
2026-05-07 14:28 38.47166 -86.09205 28969 ft 502 kts 144°
2026-05-07 14:29 38.44820 -86.05889 29227 ft 504 kts 144°
2026-05-07 14:29 38.42458 -86.02571 29470 ft 506 kts 145°
2026-05-07 14:29 38.40100 -85.99268 29703 ft 509 kts 145°